Flag for U.S.A. Weather past 2 weeks in Hollywood, Florida, U.S.A.

Now
78 °F

Overcast.


Feels Like: 80 °F
Forecast: 70 / 81 °F
Wind: 15 mph from Southeast

Location: Fort Lauderdale / Hollywood International Airport

Current Time: Dec 22, 2014 at 5:22:11 PM

Latest Report: Dec 22, 2014 at 3:53 PM


Visibility: 10 mi

Pressure: 29.93 "Hg

Humidity: 76%

Dew point: 70 °F

Location of HollywoodLocation

Historic Weather in Hollywood — Graph

°F

Hollywood temperature yesterday

Maximum temperature yesterday: 78 °F (at 1:53 PM)
Minimum temperature yesterday: 65 °F (at 6:53 AM)
Average temperature yesterday: 72 °F

Past Weeks' High & Low Weather Summary

 TemperatureHumidityPressure
High80 °F (Dec 17, 1:53 PM)97% (Dec 21, 6:53 AM)30.24 "Hg (Dec 21, 6:53 AM)
Low50 °F (Dec 10, 6:53 AM)34% (Dec 10, 1:53 PM)29.93 "Hg (Dec 22, 2:53 PM)
Average66 °F69%30.08 "Hg
* Reported Dec 7 3:53 PM — Dec 22 3:53 PM, Hollywood, Weather by CustomWeather, © 2014

Note: Actual official high and low records may vary slightly from our data, if they occured in-between our weather recording intervals... More about our weather records

Advertising

Hollywood weather history for previous 24 hours

 ConditionsComfort  
Time TempWeatherWind HumidityBarometerVisibility
3:53 PM
Dec 22
78 °FOvercast.15 mph76%29.93 "Hg10 mi
2:53 PM80 °FPartly sunny.12 mph67%29.93 "Hg10 mi
1:53 PM80 °FPassing clouds.13 mph64%29.95 "Hg10 mi
12:53 PM80 °FBroken clouds.10 mph69%29.98 "Hg10 mi
12:04 PM78 °FBroken clouds.13 mph74%30.01 "Hg10 mi
11:53 AM78 °FBroken clouds.15 mph74%30.01 "Hg10 mi
10:53 AM79 °FBroken clouds.12 mph69%30.03 "Hg10 mi
9:53 AM76 °FPartly sunny.10 mph77%30.04 "Hg10 mi
8:53 AM75 °FSunny.3 mph82%30.04 "Hg10 mi
7:53 AM71 °FScattered clouds.5 mph87%30.02 "Hg10 mi
6:53 AM68 °FPassing clouds.5 mph90%30.00 "Hg10 mi
5:53 AM67 °FPassing clouds.3 mph93%30.01 "Hg10 mi
4:53 AM68 °FPassing clouds.No wind90%30.01 "Hg10 mi
3:53 AM68 °FPassing clouds.3 mph90%30.02 "Hg10 mi
2:53 AM70 °FPassing clouds.No wind84%30.02 "Hg10 mi
1:53 AM71 °FPassing clouds.3 mph81%30.03 "Hg10 mi
12:53 AM73 °FPartly cloudy.No wind76%30.04 "Hg10 mi
11:53 PM
Dec 21
73 °FPartly cloudy.5 mph76%30.04 "Hg10 mi
10:53 PM73 °FPartly cloudy.9 mph76%30.03 "Hg10 mi
9:53 PM73 °FPartly cloudy.10 mph79%30.04 "Hg10 mi
8:53 PM73 °FPartly cloudy.7 mph79%30.04 "Hg10 mi
7:53 PM73 °FPassing clouds.6 mph76%30.04 "Hg10 mi
6:53 PM73 °FPartly cloudy.6 mph74%30.03 "Hg10 mi
5:53 PM74 °FPartly cloudy.7 mph74%30.03 "Hg10 mi
Weather by CustomWeather, © 2014

See weather overviewHow to use our weather pages